Pagina principale
METAR-TAF:

METAR-TAF

Aeroporti :

Monte Cimone, Italia

latitudine: 44-12N, longitudine: 010-42E, altezza: 2165 m

Osservazione

Il bollettino è stato emesso 1 ora e 23 minuti fa, alle 23:55 UTC
Vento 2 kt da sud/sud-est
Temperature 8°C
Umidità 66%
Pressione 1022 hPa

METAR: LIVC 272355Z AUTO 15002KT //// 08/02 Q1022

Ora: 03:18 (01:18 UTC)


TAF: mancante

Osservazioni e previsioni meteorologiche di più di 4000 aeroporti (messaggi METAR e TAF).

Le stazioni disponibili sono rappresentate dai dischi gialli e rossi sulla carta.

Puntare il mouse per vedere il nome della stazione.

Clicca sopra per visualizzare le osservazioni e previsioni meteorologiche.

Per cambiare la mappa : fare clic sui pulsanti verdi con una croce nera per ingrandire, il pulsante verde con un trattino per diminuire, o sulla freccia verde per le mappe adiacenti.


METAR-TAF: